Temperature
19 18 18 18 18 17 17 17 17 17 16 16 16 16 15 15 15 15 15 15 15 15 15 15 14 15 14 14 14 14 14 15 15 15 15 15 15 15 15 15 15 15 15
19 18 18 18 18 18 17 17 17 17 16 16 16 15 15 15 15 15 15 15 15 15 15 14 14 15 15 15 14 15 14 14 15 15 16 16 16 15 15 15 15 15 15
19 19 18 18 18 17 17 17 17 17 16 16 16 15 15 15 15 15 15 15 14 14 14 14 14 14 14 14 14 14 14 14 14 14 15 16 16 15 15 15 15 15 15
19 18 18 18 18 17 17 17 17 17 16 16 16 15 15 15 15 15 15 15 15 14 14 14 14 14 14 14 14 14 14 14 14 14 14 14 14 15 15 15 15 15 15
18 18 18 18 18 17 17 17 17 16 16 16 16 15 15 15 15 15 15 14 14 14 14 14 14 14 14 14 14 14 14 14 14 14 14 14 14 14 15 15 15 15 15
18 18 18 18 17 17 17 17 17 16 16 16 16 15 15 15 15 14 14 14 14 14 14 14 14 14 14 14 14 14 14 14 14 14 13 13 14 14 14 14 15 15 14
18 18 17 17 17 17 17 17 17 16 16 16 15 15 15 15 14 14 14 14 14 14 14 14 14 14 14 13 13 13 13 13 13 13 13 13 13 13 13 14 14 14 14
18 18 17 17 17 17 17 17 16 16 16 16 15 15 15 15 14 14 14 14 14 14 14 14 14 13 13 13 13 13 13 13 13 13 13 13 13 13 13 13 13 14 15
18 18 17 17 17 17 17 17 16 16 16 15 15 15 15 14 14 14 14 14 14 14 14 14 13 13 13 13 13 13 13 13 13 12 12 13 13 12 13 13 13 13 14
18 17 17 17 17 17 17 16 16 16 16 15 15 15 14 14 14 14 14 14 14 14 13 13 13 13 13 13 13 13 13 12 12 12 12 12 12 12 12 12 12 12 13
18 17 17 17 17 17 17 16 16 16 15 15 15 15 15 14 14 14 14 14 14 13 13 13 13 13 13 13 13 12 12 12 12 12 12 12 12 12 12 12 12 12 12
18 17 17 17 17 17 16 16 16 15 15 15 15 15 15 14 14 14 14 13 13 13 13 13 13 12 12 12 12 12 12 12 12 12 11 11 11 11 11 11 11 11 11
17 17 17 17 17 16 16 16 16 15 15 15 15 15 14 14 14 14 13 13 13 13 13 13 12 12 12 12 12 12 12 11 11 11 11 11 11 11 11 11 11 11 11
17 17 17 17 17 16 16 16 15 15 15 15 15 15 14 14 14 14 13 13 13 13 13 12 12 12 12 12 12 12 11 11 11 11 11 11 11 11 11 11 11 11 11
17 17 17 17 16 16 16 16 16 15 15 15 15 15 14 14 14 13 13 13 13 13 12 12 12 12 12 12 12 12 11 11 11 11 11 11 11 11 11 10 10 10 10
18 17 17 17 17 17 16 16 16 15 15 15 15 15 14 14 14 13 13 13 13 13 12 12 12 12 12 12 12 12 11 11 11 11 10 10 10 10 10 10 10 10 10
18 18 17 17 17 17 16 16 16 15 15 15 15 15 14 14 13 13 13 13 13 12 12 12 12 11 12 12 12 11 11 11 10 10 10 10 10 10 10 10 10 10 10
18 18 18 17 17 16 16 16 16 15 15 15 14 14 14 14 13 13 13 13 12 12 12 12 11 12 11 12 11 11 11 10 10 10 10 10 10 10 10 9 9 9 9
18 18 17 17 17 16 16 16 15 15 15 14 14 14 14 14 13 13 13 13 12 12 12 12 11 11 11 11 11 11 10 10 10 10 10 10 9 9 9 9 9 9 9
18 18 17 17 17 16 16 16 15 15 15 14 14 14 14 14 13 13 13 12 12 12 12 12 11 11 11 11 11 11 10 10 9 9 9 9 9 9 9 9 8 8 8
18 18 18 17 17 17 16 15 15 15 15 14 14 14 13 13 13 13 12 12 12 12 11 11 11 11 11 10 10 10 10 9 9 9 9 9 9 9 8 8 8 8 8
18 18 18 17 17 16 16 15 15 15 14 14 14 13 13 13 13 13 12 12 12 11 11 11 10 10 10 10 10 10 9 9 9 9 8 8 8 8 8 8 8 8 7
18 18 17 17 17 16 16 15 15 15 14 14 13 13 13 13 13 12 12 12 11 11 10 10 10 10 10 10 10 9 9 9 9 8 8 8 8 8 8 8 7 7 7
18 17 17 17 17 16 16 15 15 15 14 13 13 13 13 12 12 12 12 11 11 11 10 10 10 9 9 9 9 9 9 8 8 8 8 8 8 7 7 7 7 7 6
17 17 17 16 16 16 16 15 15 14 14 13 13 12 12 12 12 11 11 11 11 11 10 10 9 9 9 9 9 8 8 8 8 7 7 7 7 7 7 6 6 6 6
17 17 17 16 16 15 15 15 14 14 13 13 12 12 12 12 11 11 11 11 11 10 10 10 9 9 9 9 8 8 8 8 7 7 7 6 6 6 6 6 6 6 5
Wind_Speed
6 5 4 4 4 5 4 4 4 3 3 2 1 2 3 3 4 5 7 7 7 7 6 5 6 5 5 5 6 5 5 5 4 2 3 3 4 6 4 4 4 5 5
7 6 5 5 5 5 5 4 3 3 2 2 2 2 2 3 4 4 6 7 7 7 6 6 5 5 5 5 6 5 4 4 5 4 2 1 2 4 5 4 4 5 5
9 8 7 6 6 5 5 4 3 3 3 3 2 2 2 2 3 4 4 6 7 8 7 7 6 6 6 6 6 6 6 5 5 6 4 3 3 3 2 4 5 5 5
8 7 7 6 6 5 4 4 4 3 3 3 2 2 2 3 3 3 3 5 6 7 7 6 6 6 6 6 6 6 5 5 4 4 4 4 4 3 2 2 5 5 5
9 8 7 7 6 6 5 4 4 4 3 3 3 2 3 3 2 2 3 4 5 7 7 6 6 6 6 7 7 7 6 5 5 5 4 4 3 3 3 3 4 4 4
9 8 7 7 7 6 5 5 5 4 4 3 3 3 4 3 3 2 3 3 3 4 6 6 6 6 6 6 6 6 7 6 6 5 4 4 4 4 4 4 4 4 4
10 9 9 9 8 8 7 6 6 5 4 4 3 3 3 3 3 2 3 2 3 4 5 5 5 5 6 6 6 6 6 7 6 6 5 5 4 4 4 4 4 4 3
10 10 10 10 9 9 8 7 6 5 5 4 4 3 3 2 2 2 2 2 3 3 4 4 5 5 6 5 5 5 6 6 6 6 6 4 5 4 4 4 5 4 3
11 11 10 10 10 9 8 8 7 6 5 5 4 4 3 3 3 2 2 2 2 2 3 4 4 5 5 5 5 5 6 6 6 6 5 5 4 4 4 4 4 5 5
12 11 10 10 9 8 8 8 7 7 6 5 4 3 3 3 3 2 2 2 2 3 2 3 4 4 5 5 5 4 5 5 5 4 5 5 5 4 4 4 4 4 5
12 11 10 10 9 9 8 8 7 7 6 6 5 5 4 4 3 3 2 2 2 2 2 2 3 4 4 4 4 4 5 5 5 5 5 5 6 5 5 4 4 4 5
12 11 11 10 10 10 9 9 8 7 7 6 6 5 5 5 4 4 3 2 2 2 2 2 2 3 3 3 4 4 4 5 5 5 5 6 5 5 5 5 5 5 5
12 11 11 11 10 10 9 9 8 7 7 6 6 6 6 6 5 4 3 2 2 2 1 1 1 2 2 3 3 3 4 4 5 5 5 6 6 6 5 6 6 5 5
13 12 12 11 10 10 10 9 8 8 7 7 7 6 6 6 5 4 3 2 1 1 1 0 1 1 2 2 3 4 4 4 5 5 5 6 6 7 7 6 7 7 7
14 14 13 12 11 11 10 9 8 8 8 8 7 6 6 6 5 4 4 3 2 2 1 1 1 2 2 3 5 5 5 5 5 5 5 5 5 7 7 7 8 8 7
14 14 14 13 13 12 11 10 9 9 8 8 7 6 6 6 6 5 4 3 3 2 2 2 2 2 2 3 5 7 6 6 6 6 6 6 5 5 6 7 8 9 9
14 15 15 14 13 12 12 11 10 9 9 8 7 7 7 7 6 6 5 4 3 3 2 2 2 3 2 2 5 7 7 6 6 7 7 6 6 7 8 7 9 9 9
14 14 13 13 12 12 11 11 10 10 9 8 7 7 7 6 6 5 5 4 4 3 3 3 3 3 2 3 5 7 7 6 6 6 7 7 7 7 9 10 11 11 10
12 12 12 12 12 12 12 11 11 10 9 9 8 7 7 7 6 6 5 4 4 3 3 3 3 4 3 2 4 7 6 6 7 6 7 8 8 6 9 11 11 12 11
9 10 11 12 12 12 12 12 11 11 10 9 8 8 7 7 7 6 5 5 4 4 4 3 4 4 4 1 4 7 5 6 7 6 7 6 7 8 10 11 12 13 12
9 10 11 11 11 12 12 12 11 11 10 8 8 7 7 7 6 6 5 5 4 4 4 4 4 4 4 3 3 6 6 6 7 7 7 6 5 9 12 13 12 12 14
10 11 11 10 10 12 12 12 11 10 9 8 8 7 7 6 6 6 5 5 5 5 5 5 5 4 4 4 4 6 7 9 8 8 8 7 7 11 13 12 12 14 14
10 10 10 10 10 12 12 12 10 9 9 9 8 7 7 7 6 6 6 5 5 5 5 5 5 5 5 4 5 7 8 9 8 8 8 10 11 12 11 10 12 12 10
9 10 11 11 11 11 11 11 10 10 10 10 9 8 8 7 7 6 6 5 5 5 6 5 6 6 6 6 5 5 6 7 8 8 8 10 11 10 10 11 10 8 9
8 9 10 11 11 11 11 10 10 11 11 10 9 8 7 7 7 7 6 7 6 6 6 6 6 7 7 5 6 8 8 8 8 9 9 9 9 9 9 9 9 9 9
8 9 9 10 10 10 11 10 10 11 11 9 9 7 7 6 6 6 6 7 7 6 8 9 9 8 8 8 9 10 11 11 10 10 10 10 10 10 10 10 9 9 9
Wind_Direction
151 150 149 155 151 142 138 134 141 142 144 125 105 81 68 55 51 46 38 32 30 26 29 24 26 20 28 23 23 24 31 32 19 30 65 84 62 45 46 34 27 40 34
165 162 161 158 155 146 142 138 132 136 136 110 89 82 72 61 58 50 46 35 36 33 30 32 34 32 30 31 27 24 19 29 20 3 355 41 92 50 43 39 31 30 30
181 171 164 159 157 153 146 139 134 133 130 130 120 119 109 99 78 61 48 37 37 37 34 36 36 33 35 35 27 23 22 21 27 23 5 359 15 4 40 30 28 28 24
185 172 167 166 163 156 147 142 133 120 118 127 128 118 100 82 66 56 58 57 48 42 37 39 38 41 40 39 33 32 25 16 23 31 24 16 6 338 353 21 27 24 26
184 177 174 168 161 149 146 142 130 117 111 112 109 115 98 95 90 80 67 58 53 43 41 41 42 43 43 41 39 35 29 26 20 18 16 17 6 345 340 343 353 10 23
179 174 166 163 154 145 145 143 135 122 117 123 120 111 104 102 96 83 72 67 64 50 48 44 46 45 43 41 38 39 41 33 28 21 20 11 4 357 347 331 337 349 4
178 174 171 170 163 159 157 154 147 139 138 135 128 118 113 111 102 93 82 65 62 55 47 44 45 45 42 41 39 42 38 40 36 29 22 18 11 354 339 330 332 334 336
180 178 177 174 169 167 166 164 156 149 147 145 136 127 123 118 101 88 79 73 60 50 48 45 49 48 42 41 41 38 40 36 38 35 28 19 14 1 351 340 330 325 331
181 180 177 176 174 172 172 171 166 159 157 154 146 140 134 123 114 114 97 84 70 58 56 58 56 53 46 40 38 39 38 34 30 27 28 23 19 7 356 343 334 326 320
182 179 176 178 177 173 172 174 173 167 164 163 158 147 145 137 128 123 107 93 75 67 74 62 58 53 48 45 39 37 28 31 35 18 18 16 12 6 358 345 336 328 318
182 178 175 177 174 172 174 175 176 173 170 170 165 161 157 155 152 135 125 116 93 93 86 70 57 51 43 41 41 27 25 18 19 17 15 11 6 357 354 346 339 332 321
181 177 174 174 175 178 180 180 179 177 175 176 175 173 166 169 164 151 149 138 113 96 79 77 63 50 36 28 25 19 11 6 3 2 359 358 360 350 345 341 336 335 326
182 178 178 180 180 181 182 182 181 180 177 180 182 180 177 172 169 165 160 154 130 121 101 72 55 41 19 9 3 358 351 350 349 346 344 344 344 340 342 333 329 327 326
185 183 184 185 184 184 184 183 182 181 181 184 187 187 181 176 176 173 174 178 170 164 150 64 20 356 342 336 342 339 331 331 332 331 331 332 333 333 333 328 326 323 319
189 189 189 187 185 185 185 183 181 182 183 184 189 189 182 175 179 177 185 189 196 208 218 252 293 319 315 337 333 322 317 315 316 316 318 324 329 329 323 321 321 319 312
194 192 191 189 189 186 184 182 182 182 183 185 185 180 183 179 184 186 190 194 205 217 223 252 272 298 316 5 335 313 307 307 306 309 310 309 300 300 290 296 302 304 302
195 194 193 192 191 188 183 181 181 178 181 182 180 181 183 182 186 186 187 197 205 212 226 246 265 282 327 348 314 309 304 303 307 308 307 308 309 302 303 291 272 275 273
196 195 193 190 188 184 181 179 177 179 181 183 183 182 183 184 185 187 194 208 215 211 229 249 263 283 307 322 310 302 292 298 300 300 301 301 305 318 317 308 301 298 291
194 191 189 185 182 180 178 176 177 181 184 186 187 185 186 185 188 192 200 209 215 222 233 247 263 271 278 307 304 293 293 292 295 297 298 302 303 332 317 303 300 299 296
183 180 180 179 179 177 176 179 181 184 189 190 191 188 188 187 192 200 205 204 212 226 237 244 258 268 281 306 300 293 290 295 298 298 295 299 304 319 310 301 302 300 302
173 173 175 178 178 175 177 183 186 191 190 186 186 187 187 192 196 201 203 205 213 224 237 245 255 264 275 265 274 288 290 296 298 299 298 304 310 305 303 299 298 302 304
170 173 175 177 177 178 181 186 192 191 183 181 185 188 190 193 196 199 206 212 216 225 238 250 259 266 265 268 265 272 280 295 293 295 298 306 310 302 298 296 300 300 296
174 176 177 177 179 184 188 192 190 184 182 182 187 191 194 195 202 205 208 214 222 234 245 254 264 271 275 264 248 261 268 277 283 290 303 303 296 291 288 283 288 290 288
179 179 180 183 186 187 192 195 187 184 186 189 192 196 200 202 206 212 218 222 228 237 247 257 266 274 276 277 279 280 277 267 275 287 290 279 277 273 279 286 284 284 289
183 186 190 191 191 189 191 192 189 188 192 194 197 202 206 210 214 215 222 230 234 244 252 260 266 274 277 290 308 292 288 292 295 299 292 288 288 288 288 288 290 289 287
186 190 194 195 195 192 193 192 191 194 198 200 202 204 205 209 217 223 228 228 242 240 244 257 267 270 271 287 281 279 283 288 289 288 282 283 283 284 287 289 290 288 288
Height
1560 1562 1563 1564 1565 1566 1567 1567 1567 1567 1567 1566 1566 1566 1565 1564 1563 1562 1561 1560 1559 1557 1556 1555 1554 1552 1551 1550 1549 1547 1546 1545 1544 1544 1543 1542 1542 1541 1539 1539 1539 1538 1537
1560 1561 1562 1563 1565 1566 1566 1567 1567 1567 1567 1566 1566 1566 1565 1565 1563 1562 1561 1561 1560 1558 1557 1556 1555 1553 1552 1551 1549 1548 1547 1546 1545 1545 1544 1544 1544 1542 1541 1540 1539 1539 1538
1558 1560 1561 1563 1564 1565 1566 1566 1567 1566 1566 1566 1566 1565 1565 1565 1564 1563 1562 1561 1560 1559 1558 1557 1556 1555 1554 1552 1550 1549 1548 1548 1547 1546 1546 1545 1544 1544 1543 1541 1540 1539 1539
1557 1559 1560 1562 1563 1564 1565 1566 1566 1566 1566 1566 1566 1566 1566 1565 1564 1564 1563 1562 1561 1560 1558 1558 1557 1556 1554 1553 1552 1550 1550 1549 1548 1547 1546 1546 1545 1545 1544 1543 1542 1540 1539
1555 1557 1559 1560 1562 1563 1564 1565 1566 1566 1565 1565 1565 1565 1565 1565 1564 1564 1563 1563 1561 1560 1559 1558 1558 1557 1555 1554 1552 1551 1550 1549 1549 1548 1547 1546 1546 1545 1545 1543 1543 1542 1541
1553 1555 1557 1559 1561 1562 1563 1564 1565 1565 1564 1564 1564 1564 1564 1564 1564 1563 1563 1563 1562 1561 1560 1559 1558 1557 1556 1555 1553 1552 1551 1550 1549 1548 1548 1547 1547 1546 1545 1544 1543 1542 1541
1551 1553 1555 1557 1559 1560 1562 1563 1564 1564 1564 1564 1564 1564 1564 1564 1563 1563 1563 1563 1562 1561 1560 1559 1559 1558 1557 1555 1554 1553 1552 1551 1550 1549 1548 1547 1547 1546 1545 1544 1543 1542 1541
1549 1551 1553 1555 1557 1559 1560 1562 1562 1563 1563 1563 1563 1563 1563 1563 1563 1562 1563 1563 1562 1561 1561 1560 1559 1558 1557 1556 1555 1554 1553 1552 1551 1550 1548 1547 1547 1546 1545 1544 1543 1542 1541
1546 1549 1551 1553 1555 1557 1559 1560 1561 1562 1562 1562 1562 1562 1562 1562 1562 1562 1562 1562 1562 1561 1561 1560 1560 1559 1558 1557 1556 1555 1554 1552 1551 1550 1549 1548 1547 1546 1545 1544 1543 1543 1541
1544 1546 1549 1551 1554 1555 1557 1558 1559 1560 1560 1561 1561 1561 1561 1561 1561 1561 1561 1561 1561 1560 1560 1560 1560 1559 1558 1557 1556 1555 1554 1553 1551 1550 1549 1548 1547 1546 1544 1543 1542 1542 1541
1541 1543 1546 1549 1551 1553 1555 1556 1557 1558 1559 1559 1559 1559 1560 1560 1560 1560 1560 1560 1560 1560 1560 1560 1560 1559 1558 1558 1556 1555 1554 1553 1552 1551 1550 1548 1546 1545 1544 1543 1541 1540 1539
1538 1541 1544 1546 1549 1551 1553 1554 1555 1556 1557 1557 1558 1558 1558 1558 1559 1559 1559 1560 1560 1560 1560 1560 1560 1559 1558 1557 1556 1555 1554 1553 1552 1551 1549 1548 1546 1544 1543 1542 1541 1539 1538
1536 1538 1541 1544 1546 1548 1550 1552 1553 1554 1554 1555 1556 1556 1557 1557 1558 1559 1559 1559 1560 1560 1560 1560 1559 1558 1558 1557 1556 1555 1554 1553 1551 1550 1548 1547 1545 1544 1543 1541 1540 1538 1536
1532 1535 1538 1540 1543 1545 1548 1549 1551 1552 1552 1553 1554 1555 1556 1556 1557 1557 1558 1558 1559 1559 1559 1559 1558 1558 1557 1556 1555 1554 1553 1552 1550 1548 1547 1545 1544 1543 1541 1539 1538 1536 1535
1529 1531 1534 1537 1539 1542 1544 1546 1548 1549 1550 1551 1552 1553 1554 1555 1555 1556 1557 1557 1558 1558 1558 1557 1557 1556 1555 1555 1553 1552 1551 1550 1549 1547 1545 1543 1541 1540 1538 1537 1535 1534 1532
1524 1527 1531 1534 1536 1539 1541 1543 1545 1546 1548 1549 1550 1551 1552 1553 1554 1555 1555 1556 1556 1556 1556 1556 1555 1554 1553 1552 1551 1550 1549 1548 1546 1545 1543 1541 1539 1537 1535 1534 1532 1531 1529
1520 1523 1526 1529 1532 1535 1538 1540 1542 1544 1545 1547 1548 1549 1550 1551 1552 1553 1553 1554 1554 1554 1554 1553 1553 1552 1551 1550 1549 1547 1546 1545 1544 1542 1541 1539 1537 1535 1533 1531 1529 1527 1525
1517 1520 1523 1526 1529 1532 1535 1537 1539 1541 1543 1544 1545 1546 1547 1549 1550 1550 1551 1551 1552 1552 1551 1551 1550 1549 1548 1547 1546 1545 1544 1542 1541 1539 1538 1536 1534 1531 1529 1527 1525 1524 1522
1513 1516 1519 1523 1526 1529 1532 1534 1536 1538 1540 1541 1542 1544 1545 1546 1547 1548 1548 1549 1549 1549 1549 1548 1547 1546 1545 1544 1543 1542 1540 1539 1537 1536 1534 1532 1530 1527 1525 1523 1521 1518 1516
1510 1513 1516 1520 1523 1526 1528 1531 1533 1535 1536 1538 1539 1541 1542 1543 1544 1545 1545 1546 1546 1546 1545 1545 1544 1543 1542 1541 1539 1538 1537 1536 1534 1532 1530 1528 1525 1523 1521 1519 1516 1513 1511
1508 1511 1514 1517 1520 1522 1525 1528 1530 1531 1533 1535 1536 1537 1539 1540 1541 1542 1542 1542 1542 1542 1542 1542 1541 1540 1539 1537 1536 1535 1533 1532 1530 1528 1526 1524 1521 1518 1516 1514 1511 1508 1505
1505 1508 1511 1514 1517 1519 1522 1524 1526 1528 1530 1532 1533 1534 1535 1536 1537 1538 1539 1539 1539 1539 1539 1538 1537 1536 1535 1534 1532 1531 1529 1528 1526 1524 1521 1519 1516 1513 1510 1507 1505 1502 1499
1503 1506 1509 1511 1514 1516 1519 1521 1523 1525 1526 1528 1529 1531 1532 1533 1534 1534 1535 1535 1535 1535 1535 1534 1533 1532 1531 1529 1528 1526 1525 1523 1521 1518 1516 1513 1510 1507 1504 1501 1499 1496 1493
1501 1503 1506 1508 1511 1513 1515 1518 1520 1521 1523 1524 1526 1527 1528 1529 1530 1530 1531 1531 1531 1531 1531 1530 1529 1528 1527 1525 1524 1522 1520 1518 1516 1513 1510 1507 1504 1501 1498 1496 1493 1490 1488
1498 1501 1503 1505 1507 1509 1512 1514 1516 1517 1519 1521 1522 1523 1524 1525 1525 1525 1526 1526 1526 1526 1526 1525 1524 1523 1522 1520 1519 1517 1515 1513 1510 1507 1504 1502 1499 1496 1493 1490 1488 1485 1482
1495 1497 1499 1501 1504 1506 1508 1510 1512 1513 1515 1517 1518 1519 1519 1520 1520 1521 1521 1520 1521 1521 1520 1519 1519 1517 1516 1514 1513 1511 1509 1507 1504 1502 1499 1496 1493 1490 1487 1484 1481 1479 1476